GFSMW_500_spd_225.txt.gz
Wind_Speed
38 36 36 32 30 31 29 25 25 24 24 23 20 19 17 14 11 10 8 7 6 9 11 13 15 18 20 20 20 22 24 27 30 31 33 36 36 35 36 38 40 41 43
41 39 40 38 34 31 31 32 30 29 27 27 28 25 24 19 19 16 14 11 10 11 11 13 16 18 20 21 21 20 23 24 28 30 32 32 33 35 37 38 40 43 45
47 45 44 42 39 35 33 35 34 33 32 31 33 31 30 25 23 22 22 19 16 15 14 14 14 16 17 19 20 20 22 26 27 29 30 30 31 34 35 38 41 45 45
52 50 48 48 44 41 35 33 34 34 35 36 36 35 36 32 29 28 27 25 23 21 20 20 19 17 18 18 21 22 23 25 27 32 33 33 31 32 33 37 41 44 46
56 54 51 50 46 43 39 36 37 38 37 38 39 40 40 38 36 33 32 29 29 28 27 27 25 22 20 21 22 25 26 26 25 28 33 35 34 33 36 40 40 39 39
56 54 51 49 47 43 42 39 38 39 40 40 41 42 42 41 41 37 37 35 33 32 32 32 29 27 24 24 24 24 24 25 25 27 30 32 34 34 35 37 37 38 42
56 54 52 49 45 43 43 43 40 39 38 39 44 45 45 45 44 42 40 39 38 36 34 33 33 30 29 28 27 27 27 28 28 28 27 28 32 35 36 39 39 39 40
55 53 50 48 45 43 45 44 43 39 38 41 46 47 46 46 46 45 42 42 41 40 36 34 34 33 32 32 31 30 31 32 32 32 33 30 29 33 38 40 43 44 44
56 48 48 49 45 43 45 47 46 38 37 39 43 46 48 46 44 43 44 46 45 42 38 37 36 36 36 35 33 33 34 34 35 36 36 36 34 35 40 43 46 48 47
54 49 58 53 46 45 47 48 45 43 41 41 44 46 48 48 45 43 45 49 47 44 41 40 39 38 38 37 36 36 38 38 39 40 40 40 41 46 51 47 48 50 49
59 54 41 46 55 54 51 48 47 45 43 47 50 46 46 48 45 46 49 50 49 45 42 42 42 41 40 40 39 40 41 43 43 43 44 45 48 56 57 50 50 51 49
64 58 59 55 54 52 51 51 49 47 45 48 49 50 46 47 47 47 51 51 48 45 44 45 45 44 44 42 42 42 44 46 46 46 48 49 56 58 54 49 50 49 47
67 67 62 59 64 62 56 54 51 48 46 48 49 51 50 50 50 51 51 50 47 47 47 49 48 47 45 44 44 46 48 49 48 49 51 55 62 59 51 47 46 45 45
68 69 67 63 62 60 60 58 53 49 47 50 50 52 50 51 52 53 50 48 50 50 50 50 50 47 46 46 47 48 50 50 51 52 56 61 62 52 49 46 45 46 47
69 68 68 70 64 58 62 62 55 50 47 48 50 50 50 52 55 52 51 49 49 51 52 51 50 48 48 49 50 50 50 51 52 57 59 62 57 50 48 44 52 50 49
71 70 67 66 69 63 48 49 54 53 44 44 50 53 56 56 56 57 54 55 54 50 51 52 50 50 52 51 51 51 51 53 60 62 63 58 57 49 48 50 52 54 54
72 70 68 67 65 70 62 55 58 50 52 55 58 60 61 62 60 60 58 58 58 53 52 54 51 51 51 53 54 55 57 65 63 61 61 58 55 50 49 50 54 55 57
80 71 68 72 68 66 68 68 67 68 63 65 67 69 67 66 64 61 60 60 61 57 55 55 55 53 53 55 58 59 66 66 64 64 61 58 54 54 49 51 53 54 56
81 79 74 71 68 65 66 68 70 66 61 67 68 68 70 68 65 62 63 68 66 62 59 58 60 58 59 61 62 68 64 65 65 63 61 58 55 56 57 57 55 56 56
78 81 81 75 75 76 71 70 71 69 64 66 72 74 73 72 71 68 66 70 70 64 63 64 62 62 64 65 66 65 65 63 61 61 56 54 55 58 59 60 60 60 59
77 79 79 78 73 77 78 82 81 76 72 72 72 74 73 73 77 69 63 72 71 68 68 68 69 69 68 65 65 65 63 60 60 60 60 60 60 61 64 63 60 59 60
72 74 77 78 79 73 76 74 72 70 73 69 65 71 71 71 70 73 75 74 70 70 72 71 71 72 69 67 55 65 63 62 62 62 61 62 65 68 65 61 58 58 61
68 69 72 76 77 76 76 74 71 75 76 77 69 70 72 71 70 70 73 74 74 75 70 74 75 73 71 71 69 64 66 60 60 60 60 61 61 60 58 56 55 56 56
59 65 67 73 75 78 76 73 77 76 81 78 78 77 76 75 75 75 74 73 74 79 79 76 75 76 71 70 66 66 62 62 64 60 67 67 62 58 57 55 55 54 50
67 65 62 59 56 50 73 75 73 74 80 83 81 77 82 79 74 70 72 79 80 75 76 77 76 75 74 66 63 57 63 65 66 69 68 65 60 56 55 53 55 56 55
72 72 67 64 58 55 46 55 76 75 74 73 82 79 74 75 75 72 69 67 68 73 74 71 73 70 63 59 64 63 60 56 61 62 62 61 53 51 53 56 59 60 59

GFSMW_500_spd_231.txt.gz
Wind_Speed
51 50 47 45 42 39 35 31 30 30 29 27 24 24 23 21 20 17 16 14 13 11 10 9 10 10 10 10 11 12 11 12 14 14 17 15 17 20 22 26 28 29 32
57 55 52 48 46 42 39 36 34 32 32 31 28 28 27 23 25 25 21 19 19 19 16 15 15 15 15 14 15 16 18 18 18 17 20 19 19 19 22 24 26 29 32
62 59 53 54 48 46 43 39 35 34 33 33 34 33 31 29 24 26 29 26 27 27 23 22 21 20 21 20 19 19 21 24 23 21 22 21 20 23 25 21 27 29 27
63 62 57 57 53 49 46 42 39 38 37 37 39 36 34 32 29 30 33 33 33 32 30 29 29 27 25 26 25 24 24 27 27 25 24 24 24 23 25 27 25 28 31
64 64 61 58 56 54 52 50 47 45 42 41 39 39 35 32 33 35 33 33 35 35 36 36 34 33 32 31 31 28 28 29 30 31 28 25 27 28 28 28 31 28 31
68 68 66 60 58 58 57 54 53 46 45 45 41 42 38 34 36 37 37 38 39 39 39 39 39 38 38 36 34 35 32 33 32 33 33 32 28 29 32 32 32 34 33
66 66 68 62 64 61 60 59 55 49 49 49 46 43 42 40 40 42 42 43 43 42 41 42 42 42 41 39 38 37 37 37 37 35 35 35 35 34 35 36 35 36 35
64 61 63 66 66 64 62 64 58 54 52 51 51 46 46 47 44 44 44 45 46 45 45 45 45 44 44 42 42 41 40 40 40 39 38 38 38 39 40 41 40 39 39
68 62 61 64 64 63 63 61 60 58 55 53 52 50 50 50 46 45 46 48 48 47 47 48 47 48 45 45 45 44 43 43 43 42 42 42 42 42 42 43 44 46 46
71 69 68 67 63 61 59 60 59 58 56 55 55 54 53 52 50 48 48 50 50 49 49 48 50 51 48 49 49 46 46 45 45 46 44 45 46 45 45 46 46 47 49
74 70 71 68 64 64 64 64 60 58 57 57 56 56 55 54 53 52 52 51 52 50 50 51 52 52 50 52 53 50 49 48 48 49 48 47 49 48 48 48 49 49 50
74 77 77 73 72 69 67 65 64 63 61 59 60 60 57 55 55 54 54 55 55 53 51 53 53 52 51 54 54 53 52 51 51 51 51 51 52 51 51 50 51 51 50
65 66 70 72 73 71 71 72 68 67 61 62 63 60 61 60 59 56 55 56 57 55 53 56 54 52 52 53 55 55 55 53 54 55 54 54 53 53 52 52 51 51 50
68 71 71 73 74 75 76 74 71 70 68 68 61 65 62 59 60 56 56 57 57 57 57 57 56 58 56 55 54 55 56 57 56 55 55 56 54 54 54 54 52 51 52
76 73 73 73 70 71 73 72 75 74 73 69 71 67 66 70 70 67 65 60 60 60 62 59 59 61 59 56 54 56 57 58 58 56 56 57 56 56 57 56 54 54 56
77 79 71 72 73 74 73 71 73 74 73 75 72 67 68 63 63 64 63 64 61 61 62 61 61 62 61 56 56 58 59 60 59 58 60 59 57 57 56 55 55 56 59
69 78 83 74 77 77 76 74 72 72 73 74 74 73 76 68 68 65 63 61 60 60 61 63 61 62 59 56 57 59 59 61 60 60 58 58 55 56 56 54 59 63 66
74 75 76 77 76 79 78 76 74 73 72 72 72 72 71 74 74 69 68 66 62 64 66 63 62 61 59 57 58 60 61 63 63 61 60 58 58 56 54 60 62 63 53
74 75 72 72 72 74 80 77 77 76 73 73 70 69 68 69 72 72 64 63 63 63 62 63 63 63 61 60 62 65 66 65 64 64 63 58 56 61 60 61 63 54 52
83 72 70 70 68 69 71 73 71 71 76 77 73 71 71 69 67 68 65 65 65 65 66 66 67 66 65 65 68 70 69 69 68 67 70 70 71 66 67 63 61 54 54
70 79 76 75 72 69 65 66 67 69 75 79 78 75 73 68 64 66 66 67 66 67 68 69 70 69 68 69 71 71 72 74 75 72 70 69 74 69 59 62 62 58 59
59 66 62 64 71 70 73 68 65 68 73 76 77 80 84 79 76 74 70 70 70 69 71 72 73 74 74 75 75 77 74 74 73 78 75 76 62 59 58 63 61 58 56
57 57 56 57 59 59 61 70 68 67 63 66 67 79 82 81 78 78 80 78 73 74 72 76 77 78 79 79 77 79 77 73 78 73 65 61 65 59 64 61 63 59 56
59 61 60 61 59 57 58 56 55 59 62 59 57 60 75 82 80 79 78 79 81 78 78 77 77 78 73 76 78 72 73 66 63 65 71 68 67 66 66 69 62 57 56
54 58 61 64 62 58 56 57 54 56 59 62 59 56 61 73 81 84 79 77 74 75 77 84 85 80 82 77 81 76 72 71 72 73 69 70 69 72 69 66 60 59 60
57 58 59 61 62 61 59 59 59 58 52 52 56 62 59 58 75 79 81 82 79 74 74 76 78 76 71 75 70 72 81 82 80 76 73 70 72 75 68 60 63 61 62

GFSMW_500_spd_234.txt.gz
Wind_Speed
54 54 50 49 45 45 41 34 31 29 28 25 24 22 22 19 20 19 16 13 12 11 11 10 10 9 9 9 10 11 11 11 14 12 14 15 16 15 19 20 21 22 23
57 58 57 54 52 48 46 38 35 34 31 30 29 29 26 24 23 21 22 20 18 19 19 17 15 16 16 16 16 16 17 16 16 17 19 20 20 21 19 21 22 23 24
60 54 56 60 57 53 51 43 37 37 36 34 35 33 31 26 24 24 25 27 27 26 25 24 21 22 21 21 22 22 22 22 22 20 21 23 24 24 23 22 23 25 27
62 58 51 58 64 60 53 49 43 41 39 38 37 35 33 31 26 29 31 32 29 28 28 29 29 27 27 26 26 28 26 27 27 26 25 26 28 28 25 25 24 25 26
63 60 63 59 65 67 59 50 50 48 43 42 41 39 37 33 31 33 32 35 34 31 30 31 32 32 32 30 32 31 31 30 31 32 29 28 28 31 32 30 32 30 30
59 58 63 67 68 69 68 59 52 52 51 46 44 45 43 40 36 36 36 35 36 36 36 34 33 33 34 35 35 36 35 35 34 35 35 33 30 30 33 34 34 36 35
66 66 63 68 70 70 70 66 60 55 54 53 48 46 46 46 43 40 40 39 39 39 38 39 40 38 36 37 39 38 37 37 38 38 37 38 37 36 35 36 37 37 39
43 54 64 73 74 75 72 64 64 63 58 53 52 55 51 47 47 45 45 44 42 42 43 44 44 43 41 39 40 39 37 40 41 40 41 40 40 41 42 41 41 41 42
54 59 70 67 63 67 66 64 66 69 66 58 52 56 58 54 48 50 48 48 46 45 46 47 46 45 45 43 41 39 39 42 43 42 42 43 43 42 43 44 45 46 47
69 72 71 67 65 59 61 65 66 67 66 61 62 60 58 59 53 53 52 49 48 48 50 49 49 48 47 46 45 40 39 45 46 45 46 45 45 45 45 47 47 47 49
64 64 60 63 63 69 71 64 65 65 62 61 61 60 58 59 58 55 54 52 50 51 54 52 51 50 49 48 47 43 43 47 49 47 48 48 47 47 47 48 49 49 51
60 72 72 60 60 67 69 61 60 69 66 64 61 58 57 58 58 58 56 55 54 54 55 56 54 51 51 50 49 46 46 49 50 49 50 50 50 49 49 50 50 50 52
44 51 57 67 73 74 73 66 66 70 68 68 64 62 62 60 59 59 59 58 57 57 56 57 56 53 54 54 52 49 50 52 51 51 51 52 51 51 52 51 50 52 53
56 57 60 60 67 71 77 73 74 74 68 65 66 63 60 59 61 62 62 62 61 60 60 59 58 57 56 58 55 51 51 53 52 51 51 52 51 52 52 51 52 53 54
52 64 71 75 78 72 72 62 63 71 77 75 71 67 68 69 66 61 65 66 65 66 65 63 62 59 56 58 57 54 56 58 55 53 53 51 52 53 52 52 54 56 54
69 60 57 65 65 64 68 69 69 67 63 64 67 71 74 74 69 67 69 66 67 63 65 62 60 59 59 59 58 57 61 61 57 56 54 53 54 53 54 55 54 53 53
64 67 70 73 74 72 73 71 68 67 67 65 65 65 65 68 69 73 70 68 68 69 70 71 71 72 70 65 58 63 65 62 59 56 55 56 56 56 57 55 54 57 57
59 64 69 71 73 70 63 65 70 71 67 66 66 67 67 66 66 68 68 69 71 70 68 64 60 60 58 58 61 63 64 63 58 58 59 58 58 59 59 59 59 60 61
60 59 64 67 72 67 66 65 65 68 68 67 70 70 70 68 65 65 67 68 67 72 72 70 69 67 64 64 65 65 66 62 61 61 62 60 61 62 63 64 62 67 70
61 66 76 79 73 72 70 70 67 67 70 69 67 69 69 70 68 66 65 64 65 65 66 67 71 72 71 65 65 65 64 64 64 65 64 64 65 67 67 66 65 70 70
55 64 67 70 72 71 68 75 72 67 66 68 66 66 66 67 68 69 68 66 65 64 63 64 66 68 68 67 66 68 67 67 67 68 68 69 70 71 69 69 71 71 73
62 63 61 59 60 59 58 58 65 71 72 69 67 65 63 65 67 71 68 70 69 66 64 68 62 66 64 66 68 68 68 69 68 68 69 70 73 75 73 73 75 75 69
57 59 63 65 65 62 58 56 54 59 60 73 73 68 63 62 66 75 76 75 75 74 72 70 65 64 67 66 67 69 69 71 71 72 72 74 77 81 80 79 75 61 55
56 57 64 65 62 63 63 62 53 55 54 58 57 74 70 65 60 61 63 69 79 79 77 75 70 65 66 69 70 70 72 74 75 77 77 81 83 83 76 73 69 67 57
60 60 59 59 61 62 62 63 62 62 60 54 52 50 56 62 63 63 61 67 75 81 79 72 71 72 71 69 72 72 75 79 83 73 78 90 81 75 73 66 69 69 69
60 61 61 62 59 58 61 63 63 65 63 58 56 52 49 49 51 59 58 59 58 72 80 78 76 70 70 69 69 74 77 72 73 82 79 65 79 63 58 64 68 68 70

GFSMW_500_spd_237.txt.gz
Wind_Speed
54 55 52 54 48 45 38 36 34 32 31 26 24 22 20 18 17 17 16 16 14 13 11 11 9 9 8 7 8 9 11 11 12 11 11 12 14 17 18 21 21 21 23
58 57 56 57 57 53 47 39 39 37 36 32 29 29 26 22 20 19 20 21 20 21 21 18 17 15 14 15 14 14 15 16 18 17 17 17 17 18 19 21 23 25 25
55 56 56 56 60 61 55 49 42 43 39 37 36 34 32 26 22 23 24 25 24 25 27 27 25 23 22 20 21 20 20 20 21 22 21 22 21 21 23 23 25 26 27
54 55 48 51 53 62 64 55 50 44 45 42 41 39 35 32 26 27 27 26 26 27 29 30 31 30 29 26 26 27 26 26 25 25 25 26 26 24 21 25 26 27 28
52 55 39 45 50 56 62 61 60 53 48 46 44 43 39 35 31 30 30 30 30 29 31 33 34 34 32 31 31 31 32 31 29 30 30 29 30 29 28 25 30 28 29
53 58 58 55 56 59 60 62 63 64 56 45 44 46 42 38 37 35 34 34 34 34 34 34 36 38 36 34 34 35 35 35 34 33 34 34 33 31 32 31 31 33 34
57 60 65 61 60 62 62 64 65 68 66 55 49 47 46 44 42 42 41 41 39 37 36 38 38 38 40 39 39 38 37 35 35 36 36 38 37 35 34 34 34 35 36
63 67 62 64 59 61 64 63 68 71 69 68 55 53 49 48 48 48 47 45 43 41 40 40 42 41 42 42 43 43 41 38 36 36 38 40 39 40 37 36 36 36 38
52 65 71 51 59 70 67 64 72 73 73 67 61 58 55 55 54 51 50 48 48 47 44 43 43 45 46 46 46 46 45 44 41 38 39 41 40 40 41 40 40 41 40
54 53 56 62 60 66 75 77 77 77 71 70 64 65 61 59 59 58 56 52 51 51 50 47 45 46 48 47 48 48 48 47 44 39 41 44 42 42 42 42 43 43 44
62 61 61 56 62 66 69 71 79 79 77 75 74 71 64 61 63 63 59 56 54 55 56 52 48 48 50 49 50 50 51 49 46 40 40 43 44 43 43 44 43 44 45
62 68 70 67 64 67 71 71 74 74 68 71 68 66 66 63 60 63 63 58 58 59 58 58 54 52 52 53 53 53 53 52 49 44 43 43 44 44 43 44 44 46 45
52 64 70 76 74 74 76 77 75 70 71 66 66 67 67 60 57 57 61 62 56 57 59 60 59 57 55 55 55 55 55 55 52 47 45 45 45 45 44 44 45 45 45
47 52 66 71 77 74 70 74 75 76 65 64 62 56 54 58 61 64 61 59 59 55 56 60 60 60 59 57 56 56 55 55 55 51 48 48 47 46 45 46 46 45 46
53 57 59 61 68 72 76 75 78 78 72 67 67 65 62 62 60 56 58 61 64 62 61 59 59 60 60 59 58 57 56 57 56 53 54 52 50 48 46 47 47 46 48
63 59 58 67 69 64 66 69 76 78 76 74 71 72 70 70 69 71 70 63 59 61 61 57 58 62 61 60 62 61 58 59 55 54 56 56 57 54 52 50 49 48 49
54 64 59 64 64 65 69 64 65 70 69 63 65 64 62 65 73 76 74 72 72 72 67 63 62 63 63 63 63 60 59 56 56 58 60 61 58 57 59 54 52 51 52
74 69 67 72 75 79 75 60 71 73 73 75 72 73 69 66 67 68 68 69 71 73 71 72 71 69 67 65 60 57 62 67 60 60 64 65 61 62 59 57 55 54 55
64 68 74 68 64 67 69 71 72 65 70 76 77 72 74 71 68 68 66 64 64 64 66 69 71 72 72 69 66 67 68 69 63 60 58 58 61 62 62 61 58 57 58
50 67 68 68 67 66 60 61 62 66 69 74 76 73 73 74 71 69 68 66 67 66 67 65 64 65 67 68 73 71 69 75 69 73 60 57 63 64 64 62 60 62 62
56 56 57 60 62 62 67 69 69 72 71 73 76 73 68 70 69 69 69 70 71 71 69 67 66 66 64 65 67 68 72 75 74 73 72 61 61 66 61 62 62 64 64
61 64 63 63 62 62 63 63 64 68 75 81 81 81 80 77 74 72 72 73 72 72 72 72 69 68 65 64 63 63 62 67 62 58 58 58 64 66 61 61 61 63 65
59 65 66 66 70 67 69 68 65 66 67 64 64 66 70 76 76 76 70 69 70 70 71 73 72 70 69 68 64 64 63 65 70 63 60 64 65 66 63 62 63 67 69
65 66 65 64 69 65 64 66 66 67 69 70 70 64 60 61 68 70 71 70 67 69 70 71 73 73 74 72 70 67 65 66 67 65 64 66 66 66 68 66 68 72 72
66 67 71 73 73 69 66 64 66 68 67 68 67 69 65 58 54 57 58 54 67 70 69 69 72 74 76 77 75 73 71 67 63 65 69 70 69 71 72 71 71 79 85
41 45 50 57 60 61 64 66 67 67 68 65 65 67 69 65 62 54 52 54 57 60 66 67 63 60 64 68 77 77 73 72 67 60 61 71 74 78 80 75 81 83 84